,,,PA_Meas_PMT16A,,PR_Meas_QMR101_102,,RH_Meas_QMH101,,SR_Meas_QMS101,,TA_Meas_QMH101,,GenWind,,GenWind,
date,time,status,PA,status,PR,status,RH,status,SR,status,TA,status,DirAvg,status,SpdAvg,
2008-07-22, 00:00:04,VALID,1010.23,VALID,0,VALID,94.0027,VALID,0.105969,VALID,23.1095,VALID,204,VALID,0.422656,
2008-07-22, 00:01:04,VALID,1010.25,VALID,0,VALID,94.0637,VALID,0.105969,VALID,23.09,VALID,201,VALID,0.548828,
2008-07-22, 00:02:04,VALID,1010.21,VALID,0,VALID,94.0865,VALID,0.105969,VALID,23.0705,VALID,186,VALID,0.537109,
2008-07-22, 00:03:04,VALID,1010.22,VALID,0,VALID,94.0408,VALID,0.105969,VALID,23.0511,VALID,186,VALID,0.679688,
2008-07-22, 00:04:04,VALID,1010.2,VALID,0,VALID,94.0789,VALID,0,VALID,23.0705,VALID,184,VALID,0.528906,
2008-07-22, 00:05:04,VALID,1010.2,VALID,0,VALID,94.1247,VALID,0,VALID,23.0511,VALID,184,VALID,0.496094,
2008-07-22, 00:06:04,VALID,1010.14,VALID,0,VALID,94.1171,VALID,0.105969,VALID,23.0493,VALID,184,VALID,0.608594,
2008-07-22, 00:07:04,VALID,1010.16,VALID,0,VALID,94.2696,VALID,0,VALID,23.0511,VALID,183,VALID,0.268359,
2008-07-22, 00:08:04,VALID,1010.12,VALID,0,VALID,94.3229,VALID,0,VALID,23.0705,VALID,183,VALID,0.444531,
2008-07-22, 00:09:04,VALID,1010.13,VALID,0,VALID,94.3382,VALID,0,VALID,23.0316,VALID,168,VALID,0.842969,
2008-07-22, 00:10:04,VALID,1010.13,VALID,0,VALID,94.3611,VALID,0.105969,VALID,23.0511,VALID,160,VALID,0.835547,
2008-07-22, 00:11:04,VALID,1010.14,VALID,0,VALID,94.3763,VALID,0,VALID,23.0316,VALID,154,VALID,0.960156,
2008-07-22, 00:12:04,VALID,1010.18,VALID,0,VALID,94.3534,VALID,0.105969,VALID,23.0511,VALID,152,VALID,0.594141,
2008-07-22, 00:13:04,VALID,1010.15,VALID,0,VALID,94.3992,VALID,0.105969,VALID,23.09,VALID,148,VALID,0.777344,
2008-07-22, 00:14:04,VALID,1010.18,VALID,0,VALID,94.4831,VALID,0,VALID,23.0883,VALID,155,VALID,0.927344,
2008-07-22, 00:15:04,VALID,1010.19,VALID,0,VALID,94.4373,VALID,0,VALID,23.1112,VALID,155,VALID,0.999219,
2008-07-22, 00:16:04,VALID,1010.2,VALID,0,VALID,94.4145,VALID,0,VALID,23.1307,VALID,155,VALID,1.1918,
2008-07-22, 00:17:04,VALID,1010.2,VALID,0,VALID,94.3763,VALID,0,VALID,23.1502,VALID,153,VALID,0.773828,
2008-07-22, 00:18:04,VALID,1010.2,VALID,0,VALID,94.2924,VALID,0,VALID,23.1485,VALID,153,VALID,1.37578,
2008-07-22, 00:19:04,VALID,1010.21,VALID,0,VALID,94.1018,VALID,0,VALID,23.1874,VALID,162,VALID,1.63359,
2008-07-22, 00:20:04,VALID,1010.25,VALID,0,VALID,93.934,VALID,0,VALID,23.1874,VALID,171,VALID,1.13633,
2008-07-22, 00:21:04,VALID,1010.23,VALID,0,VALID,93.7586,VALID,0,VALID,23.2282,VALID,157,VALID,1.36719,
2008-07-22, 00:22:04,VALID,1010.26,VALID,0,VALID,93.5756,VALID,0,VALID,23.2282,VALID,167,VALID,1.85977,
2008-07-22, 00:23:04,VALID,1010.27,VALID,0,VALID,93.4079,VALID,0,VALID,23.2282,VALID,166,VALID,1.9125,
2008-07-22, 00:24:04,VALID,1010.27,VALID,0,VALID,93.4231,VALID,0,VALID,23.2069,VALID,154,VALID,1.24297,
2008-07-22, 00:25:04,VALID,1010.27,VALID,0,VALID,93.507,VALID,0,VALID,23.1874,VALID,164,VALID,1.49688,
2008-07-22, 00:26:04,VALID,1010.28,VALID,0,VALID,93.5299,VALID,0,VALID,23.1679,VALID,166,VALID,1.03047,
2008-07-22, 00:27:04,VALID,1010.28,VALID,0,VALID,93.6137,VALID,0,VALID,23.1485,VALID,165,VALID,1.08203,
2008-07-22, 00:28:04,VALID,1010.28,VALID,0,VALID,93.7358,VALID,0,VALID,23.1892,VALID,173,VALID,1.16367,
2008-07-22, 00:29:04,VALID,1010.25,VALID,0,VALID,93.7968,VALID,0,VALID,23.1485,VALID,152,VALID,1.31719,
2008-07-22, 00:30:04,VALID,1010.25,VALID,0,VALID,93.8425,VALID,0,VALID,23.1485,VALID,172,VALID,1.46367,
2008-07-22, 00:31:04,VALID,1010.23,VALID,0,VALID,93.9417,VALID,0.105969,VALID,23.129,VALID,153,VALID,1.26133,
2008-07-22, 00:32:05,VALID,1010.23,VALID,0,VALID,94.0408,VALID,0.105969,VALID,23.1272,VALID,155,VALID,0.698438,
2008-07-22, 00:33:05,VALID,1010.24,VALID,0,VALID,94.1704,VALID,0.105969,VALID,23.0688,VALID,178,VALID,1.00898,
2008-07-22, 00:34:05,VALID,1010.23,VALID,0,VALID,94.2619,VALID,0.105969,VALID,23.1095,VALID,173,VALID,1.38867,
2008-07-22, 00:35:05,VALID,1010.21,VALID,0,VALID,94.3229,VALID,0,VALID,23.09,VALID,154,VALID,0.794922,
2008-07-22, 00:36:05,VALID,1010.23,VALID,0,VALID,94.3992,VALID,0.105969,VALID,23.09,VALID,154,VALID,0.849219,
2008-07-22, 00:37:05,VALID,1010.24,VALID,0,VALID,94.4145,VALID,0,VALID,23.09,VALID,169,VALID,1.08438,
2008-07-22, 00:38:05,VALID,1010.22,VALID,0,VALID,94.4755,VALID,0.105969,VALID,23.0705,VALID,185,VALID,0.998828,
2008-07-22, 00:39:05,VALID,1010.23,VALID,0,VALID,94.5212,VALID,0,VALID,23.0705,VALID,171,VALID,0.727734,
2008-07-22, 00:40:05,VALID,1010.21,VALID,0,VALID,94.5288,VALID,0.105969,VALID,23.0511,VALID,162,VALID,1.65117,
2008-07-22, 00:41:05,VALID,1010.18,VALID,0,VALID,94.5593,VALID,0,VALID,23.0705,VALID,185,VALID,1.25391,
2008-07-22, 00:42:05,VALID,1010.19,VALID,0,VALID,94.5822,VALID,0.105969,VALID,23.0493,VALID,152,VALID,1.06211,
2008-07-22, 00:43:05,VALID,1010.17,VALID,0,VALID,94.6051,VALID,0.105969,VALID,23.0705,VALID,156,VALID,1.43984,
2008-07-22, 00:44:05,VALID,1010.17,VALID,0,VALID,94.6356,VALID,0.105969,VALID,23.09,VALID,159,VALID,1.09258,
2008-07-22, 00:45:05,VALID,1010.14,VALID,0,VALID,94.6585,VALID,0.105969,VALID,23.0493,VALID,162,VALID,0.939453,
2008-07-22, 00:46:05,VALID,1010.12,VALID,0,VALID,94.689,VALID,0.105969,VALID,23.0705,VALID,146,VALID,1.02539,
2008-07-22, 00:47:05,VALID,1010.13,VALID,0,VALID,94.7042,VALID,0.105969,VALID,23.0298,VALID,166,VALID,0.791406,
2008-07-22, 00:48:05,VALID,1010.14,VALID,0,VALID,94.689,VALID,0.105969,VALID,23.0705,VALID,158,VALID,0.912109,
2008-07-22, 00:49:05,VALID,1010.14,VALID,0,VALID,94.6966,VALID,0.105969,VALID,23.0705,VALID,171,VALID,0.667188,
2008-07-22, 00:50:05,VALID,1010.15,VALID,0,VALID,94.6966,VALID,0,VALID,23.0493,VALID,152,VALID,1.01055,
2008-07-22, 00:51:05,VALID,1010.12,VALID,0,VALID,94.689,VALID,0.105969,VALID,23.09,VALID,148,VALID,0.541406,
2008-07-22, 00:52:05,VALID,1010.1,VALID,0,VALID,94.6966,VALID,0,VALID,23.09,VALID,151,VALID,0.368359,
2008-07-22, 00:53:05,VALID,1010.07,VALID,0,VALID,94.6585,VALID,0.105969,VALID,23.0883,VALID,167,VALID,0.769141,
2008-07-22, 00:54:05,VALID,1010.03,VALID,0,VALID,94.6508,VALID,0,VALID,23.0705,VALID,152,VALID,0.572266,
2008-07-22, 00:55:05,VALID,1010.03,VALID,0,VALID,94.628,VALID,0.105969,VALID,23.09,VALID,152,VALID,0.330469,
2008-07-22, 00:56:05,VALID,1010.01,VALID,0,VALID,94.6356,VALID,0.105969,VALID,23.0688,VALID,176,VALID,0.458203,
2008-07-22, 00:57:05,VALID,1010.01,VALID,0,VALID,94.6127,VALID,0.105969,VALID,23.0883,VALID,170,VALID,0.426953,
2008-07-22, 00:58:05,VALID,1009.99,VALID,0,VALID,94.6508,VALID,0.105969,VALID,23.09,VALID,168,VALID,0,
2008-07-22, 00:59:05,VALID,1009.98,VALID,0,VALID,94.6508,VALID,0,VALID,23.0688,VALID,168,VALID,0.00117188,
2008-07-22, 01:00:05,VALID,1009.94,VALID,0,VALID,94.689,VALID,0.105969,VALID,23.0688,VALID,155,VALID,0.303906,
2008-07-22, 01:01:05,VALID,1009.91,VALID,0,VALID,94.689,VALID,0,VALID,23.09,VALID,155,VALID,0.196094,
2008-07-22, 01:02:05,VALID,1009.89,VALID,0,VALID,94.689,VALID,0,VALID,23.09,VALID,155,VALID,0.162109,
2008-07-22, 01:03:05,VALID,1009.89,VALID,0,VALID,94.7195,VALID,0.105969,VALID,23.1095,VALID,155,VALID,0.0175781,
2008-07-22, 01:04:05,VALID,1009.89,VALID,0,VALID,94.7805,VALID,0,VALID,23.1095,VALID,155,VALID,0,
2008-07-22, 01:05:05,VALID,1009.91,VALID,0,VALID,94.8339,VALID,0,VALID,23.129,VALID,155,VALID,0.0824219,
2008-07-22, 01:06:05,VALID,1009.89,VALID,0,VALID,94.8644,VALID,0.105969,VALID,23.1095,VALID,155,VALID,0.206641,
2008-07-22, 01:07:05,VALID,1009.91,VALID,0,VALID,94.9254,VALID,0.105969,VALID,23.1095,VALID,155,VALID,0.0261719,
2008-07-22, 01:08:05,VALID,1009.91,VALID,0,VALID,94.9559,VALID,0,VALID,23.1095,VALID,155,VALID,0.167578,
2008-07-22, 01:09:05,VALID,1009.88,VALID,0,VALID,94.9711,VALID,0.105969,VALID,23.1095,VALID,155,VALID,0,
2008-07-22, 01:10:05,VALID,1009.87,VALID,0,VALID,94.994,VALID,0.105969,VALID,23.09,VALID,155,VALID,0.221094,
2008-07-22, 01:11:05,VALID,1009.87,VALID,0,VALID,95.0626,VALID,0,VALID,23.1095,VALID,156,VALID,0.263672,
2008-07-22, 01:12:05,VALID,1009.88,VALID,0,VALID,95.0779,VALID,0.105969,VALID,23.0688,VALID,156,VALID,0.0976563,
2008-07-22, 01:13:05,VALID,1009.89,VALID,0,VALID,95.0703,VALID,0,VALID,23.09,VALID,156,VALID,0,
2008-07-22, 01:14:05,VALID,1009.89,VALID,0,VALID,95.0474,VALID,0,VALID,23.09,VALID,156,VALID,0.00078125,
2008-07-22, 01:15:05,VALID,1009.91,VALID,0,VALID,95.0474,VALID,0.105969,VALID,23.0705,VALID,156,VALID,0.180078,
2008-07-22, 01:16:05,VALID,1009.92,VALID,0,VALID,95.0398,VALID,0.105969,VALID,23.0883,VALID,156,VALID,0.160156,
2008-07-22, 01:17:05,VALID,1009.91,VALID,0,VALID,95.0321,VALID,0,VALID,23.09,VALID,156,VALID,0.264062,
2008-07-22, 01:18:05,VALID,1009.89,VALID,0,VALID,95.0779,VALID,0,VALID,23.0883,VALID,156,VALID,0.43125,
2008-07-22, 01:19:05,VALID,1009.88,VALID,0,VALID,95.055,VALID,0.105969,VALID,23.1095,VALID,148,VALID,0.482812,
2008-07-22, 01:20:05,VALID,1009.9,VALID,0,VALID,95.055,VALID,0.105969,VALID,23.0883,VALID,148,VALID,0.579297,
2008-07-22, 01:21:05,VALID,1009.87,VALID,0,VALID,95.0626,VALID,0.105969,VALID,23.1272,VALID,133,VALID,0.526953,
2008-07-22, 01:22:05,VALID,1009.85,VALID,0,VALID,95.0398,VALID,0.105969,VALID,23.1485,VALID,132,VALID,0.373437,
2008-07-22, 01:23:05,VALID,1009.84,VALID,0,VALID,95.0474,VALID,0.105969,VALID,23.1485,VALID,132,VALID,0.283984,
2008-07-22, 01:24:05,VALID,1009.84,VALID,0,VALID,95.0398,VALID,0.105969,VALID,23.1485,VALID,126,VALID,0.290625,
2008-07-22, 01:25:05,VALID,1009.83,VALID,0,VALID,95.0093,VALID,0.105969,VALID,23.1272,VALID,123,VALID,0.444141,
2008-07-22, 01:26:05,VALID,1009.82,VALID,0,VALID,94.9559,VALID,0.105969,VALID,23.1679,VALID,122,VALID,0.340625,
2008-07-22, 01:27:05,VALID,1009.78,VALID,0,VALID,94.9406,VALID,0.105969,VALID,23.1874,VALID,93,VALID,0.465234,
2008-07-22, 01:28:05,VALID,1009.78,VALID,0,VALID,94.8796,VALID,0,VALID,23.1272,VALID,64,VALID,0.504687,
2008-07-22, 01:29:05,VALID,1009.78,VALID,0,VALID,94.8491,VALID,0,VALID,23.1272,VALID,46,VALID,0.442578,
2008-07-22, 01:30:05,VALID,1009.79,VALID,0,VALID,94.8796,VALID,0,VALID,23.129,VALID,46,VALID,0.314063,
2008-07-22, 01:31:05,VALID,1009.79,VALID,0,VALID,94.8644,VALID,0,VALID,23.1307,VALID,46,VALID,0.276953,
2008-07-22, 01:32:05,VALID,1009.76,VALID,0,VALID,94.8873,VALID,0,VALID,23.1112,VALID,46,VALID,0.413672,
2008-07-22, 01:33:05,VALID,1009.72,VALID,0,VALID,94.8262,VALID,0,VALID,23.0705,VALID,35,VALID,0.594531,
2008-07-22, 01:34:05,VALID,1009.73,VALID,0,VALID,94.872,VALID,0,VALID,23.0918,VALID,35,VALID,0.430078,
2008-07-22, 01:35:05,VALID,1009.71,VALID,0,VALID,94.8949,VALID,0,VALID,23.0918,VALID,35,VALID,0.472266,
2008-07-22, 01:36:05,VALID,1009.71,VALID,0,VALID,94.9254,VALID,0,VALID,23.0511,VALID,35,VALID,0.267188,
2008-07-22, 01:37:05,VALID,1009.72,VALID,0,VALID,94.9406,VALID,0,VALID,23.0511,VALID,35,VALID,0.0449219,
2008-07-22, 01:38:05,VALID,1009.71,VALID,0,VALID,94.9711,VALID,0,VALID,23.0316,VALID,35,VALID,0.310156,
2008-07-22, 01:39:05,VALID,1009.74,VALID,0,VALID,95.0321,VALID,0,VALID,23.0511,VALID,35,VALID,0,
2008-07-22, 01:40:05,VALID,1009.74,VALID,0,VALID,95.0398,VALID,0,VALID,23.0316,VALID,35,VALID,0,
2008-07-22, 01:41:05,VALID,1009.75,VALID,0,VALID,95.0626,VALID,0,VALID,23.0121,VALID,35,VALID,0,
2008-07-22, 01:42:05,VALID,1009.76,VALID,0,VALID,95.0855,VALID,0,VALID,23.0333,VALID,35,VALID,0.0617188,
2008-07-22, 01:43:05,VALID,1009.73,VALID,0,VALID,95.1236,VALID,0,VALID,22.9926,VALID,35,VALID,0.478125,
2008-07-22, 01:44:05,VALID,1009.77,VALID,0,VALID,95.1542,VALID,0,VALID,23.0121,VALID,35,VALID,0.0484375,
2008-07-22, 01:45:05,VALID,1009.75,VALID,0,VALID,95.1847,VALID,0,VALID,22.9926,VALID,35,VALID,0,
2008-07-22, 01:46:05,VALID,1009.75,VALID,0,VALID,95.1847,VALID,0,VALID,22.9926,VALID,33,VALID,0.262109,
2008-07-22, 01:47:05,VALID,1009.76,VALID,0,VALID,95.2075,VALID,0,VALID,22.9926,VALID,356,VALID,0.502344,
2008-07-22, 01:48:05,VALID,1009.77,VALID,0,VALID,95.238,VALID,0,VALID,22.9731,VALID,343,VALID,0.529688,
2008-07-22, 01:49:05,VALID,1009.74,VALID,0,VALID,95.2762,VALID,0,VALID,22.9943,VALID,340,VALID,0.586719,
2008-07-22, 01:50:05,VALID,1009.72,VALID,0,VALID,95.2762,VALID,0,VALID,22.9536,VALID,337,VALID,0.541797,
2008-07-22, 01:51:05,VALID,1009.71,VALID,0,VALID,95.2838,VALID,0,VALID,22.9536,VALID,337,VALID,0.453125,
2008-07-22, 01:52:05,VALID,1009.72,VALID,0,VALID,95.3372,VALID,0,VALID,22.9536,VALID,337,VALID,0.285156,
2008-07-22, 01:53:05,VALID,1009.7,VALID,0,VALID,95.3677,VALID,0,VALID,22.9536,VALID,337,VALID,0.210547,
2008-07-22, 01:54:05,VALID,1009.71,VALID,0,VALID,95.3753,VALID,0,VALID,22.9342,VALID,337,VALID,0.183203,
2008-07-22, 01:55:05,VALID,1009.66,VALID,0,VALID,95.3905,VALID,0,VALID,22.9536,VALID,337,VALID,0.285156,
2008-07-22, 01:56:05,VALID,1009.68,VALID,0,VALID,95.4058,VALID,0,VALID,22.9359,VALID,337,VALID,0.220703,
2008-07-22, 01:57:05,VALID,1009.68,VALID,0,VALID,95.4211,VALID,0,VALID,22.9342,VALID,337,VALID,0.135547,
2008-07-22, 01:58:05,VALID,1009.68,VALID,0,VALID,95.4363,VALID,0,VALID,22.9147,VALID,337,VALID,0,
2008-07-22, 01:59:05,VALID,1009.65,VALID,0,VALID,95.4668,VALID,0,VALID,22.9147,VALID,337,VALID,0.195703,
2008-07-22, 02:00:05,VALID,1009.63,VALID,0,VALID,95.4897,VALID,0.105969,VALID,22.9129,VALID,337,VALID,0.271875,
2008-07-22, 02:01:05,VALID,1009.62,VALID,0,VALID,95.5049,VALID,0,VALID,22.9342,VALID,337,VALID,0.191406,
2008-07-22, 02:02:05,VALID,1009.59,VALID,0,VALID,95.5278,VALID,0.105969,VALID,22.9536,VALID,337,VALID,0.0109375,
2008-07-22, 02:03:05,VALID,1009.59,VALID,0,VALID,95.5583,VALID,0.105969,VALID,22.9324,VALID,337,VALID,0.192969,
2008-07-22, 02:04:05,VALID,1009.6,VALID,0,VALID,95.5431,VALID,0.105969,VALID,22.9342,VALID,9,VALID,0.532031,
2008-07-22, 02:05:05,VALID,1009.6,VALID,0,VALID,95.5507,VALID,0,VALID,22.9342,VALID,9,VALID,0.432031,
2008-07-22, 02:06:05,VALID,1009.61,VALID,0,VALID,95.5659,VALID,0,VALID,22.9342,VALID,9,VALID,0.156641,
2008-07-22, 02:07:05,VALID,1009.58,VALID,0,VALID,95.5888,VALID,0.105969,VALID,22.9342,VALID,9,VALID,0.0429688,
2008-07-22, 02:08:05,VALID,1009.58,VALID,0,VALID,95.5888,VALID,0.105969,VALID,22.9147,VALID,9,VALID,0.161719,
2008-07-22, 02:09:05,VALID,1009.58,VALID,0,VALID,95.5964,VALID,0.105969,VALID,22.9147,VALID,9,VALID,0.145313,
2008-07-22, 02:10:05,VALID,1009.55,VALID,0,VALID,95.5964,VALID,0.105969,VALID,22.8935,VALID,9,VALID,0.286719,
2008-07-22, 02:11:05,VALID,1009.55,VALID,0,VALID,95.6041,VALID,0,VALID,22.8935,VALID,9,VALID,0.245703,
2008-07-22, 02:12:05,VALID,1009.54,VALID,0,VALID,95.6041,VALID,0.105969,VALID,22.9147,VALID,9,VALID,0.0117188,
2008-07-22, 02:13:05,VALID,1009.52,VALID,0,VALID,95.6193,VALID,0,VALID,22.8935,VALID,9,VALID,0,
2008-07-22, 02:14:05,VALID,1009.51,VALID,0,VALID,95.6346,VALID,0.105969,VALID,22.8935,VALID,9,VALID,0,
2008-07-22, 02:15:05,VALID,1009.49,VALID,0,VALID,95.6346,VALID,0.105969,VALID,22.8935,VALID,9,VALID,0.277344,
2008-07-22, 02:16:05,VALID,1009.45,VALID,0,VALID,95.6422,VALID,0.105969,VALID,22.874,VALID,16,VALID,0.378125,
2008-07-22, 02:17:05,VALID,1009.44,VALID,0,VALID,95.6498,VALID,0,VALID,22.874,VALID,51,VALID,0.455469,
2008-07-22, 02:18:05,VALID,1009.4,VALID,0,VALID,95.6651,VALID,0,VALID,22.9147,VALID,56,VALID,0.573047,
2008-07-22, 02:19:05,VALID,1009.38,VALID,0,VALID,95.6727,VALID,0.105969,VALID,22.8952,VALID,56,VALID,0.446875,
2008-07-22, 02:20:05,VALID,1009.34,VALID,0,VALID,95.6651,VALID,0.105969,VALID,22.8952,VALID,56,VALID,0.420312,
2008-07-22, 02:21:05,VALID,1009.35,VALID,0,VALID,95.6803,VALID,0.105969,VALID,22.8952,VALID,56,VALID,0.305859,
2008-07-22, 02:22:05,VALID,1009.33,VALID,0,VALID,95.6727,VALID,0,VALID,22.8545,VALID,56,VALID,0.284766,
2008-07-22, 02:23:05,VALID,1009.35,VALID,0,VALID,95.6727,VALID,0.105969,VALID,22.8757,VALID,41,VALID,0.417578,
2008-07-22, 02:24:05,VALID,1009.38,VALID,0,VALID,95.6956,VALID,0.105969,VALID,22.8545,VALID,19,VALID,0.289844,
2008-07-22, 02:25:05,VALID,1009.38,VALID,0,VALID,95.7108,VALID,0.105969,VALID,22.8545,VALID,316,VALID,0.511719,
2008-07-22, 02:26:05,VALID,1009.38,VALID,0,VALID,95.7032,VALID,0.105969,VALID,22.8952,VALID,326,VALID,0.548437,
2008-07-22, 02:27:05,VALID,1009.36,VALID,0,VALID,95.7108,VALID,0.105969,VALID,22.8545,VALID,324,VALID,0.527344,
2008-07-22, 02:28:05,VALID,1009.37,VALID,0,VALID,95.7261,VALID,0.105969,VALID,22.8545,VALID,348,VALID,0.447266,
2008-07-22, 02:29:05,VALID,1009.34,VALID,0,VALID,95.7108,VALID,0.105969,VALID,22.8545,VALID,8,VALID,0.394531,
2008-07-22, 02:30:05,VALID,1009.31,VALID,0,VALID,95.7185,VALID,0.105969,VALID,22.8757,VALID,31,VALID,0.399609,
2008-07-22, 02:31:05,VALID,1009.35,VALID,0,VALID,95.7185,VALID,0.105969,VALID,22.835,VALID,29,VALID,0.214453,
2008-07-22, 02:32:05,VALID,1009.32,VALID,0,VALID,95.7337,VALID,0.105969,VALID,22.835,VALID,29,VALID,0.00664063,
2008-07-22, 02:33:05,VALID,1009.29,VALID,0,VALID,95.7261,VALID,0,VALID,22.835,VALID,357,VALID,0.370313,
2008-07-22, 02:34:05,VALID,1009.29,VALID,0,VALID,95.7337,VALID,0.105969,VALID,22.8562,VALID,351,VALID,0.339063,
2008-07-22, 02:35:05,VALID,1009.29,VALID,0,VALID,95.7337,VALID,0.105969,VALID,22.8562,VALID,328,VALID,0.48125,
2008-07-22, 02:36:05,VALID,1009.28,VALID,0,VALID,95.7566,VALID,0.105969,VALID,22.8562,VALID,327,VALID,0.572656,
2008-07-22, 02:37:05,VALID,1009.29,VALID,0,VALID,95.7566,VALID,0.105969,VALID,22.8545,VALID,318,VALID,0.388672,
2008-07-22, 02:38:05,VALID,1009.3,VALID,0,VALID,95.7566,VALID,0,VALID,22.8757,VALID,327,VALID,0.508594,
2008-07-22, 02:39:05,VALID,1009.3,VALID,0,VALID,95.7795,VALID,0.105969,VALID,22.8952,VALID,337,VALID,0.322656,
2008-07-22, 02:40:05,VALID,1009.29,VALID,0,VALID,95.7718,VALID,0.105969,VALID,22.8545,VALID,353,VALID,0.299219,
2008-07-22, 02:41:05,VALID,1009.3,VALID,0,VALID,95.749,VALID,0.105969,VALID,22.8545,VALID,356,VALID,0.320703,
2008-07-22, 02:42:05,VALID,1009.34,VALID,0,VALID,95.749,VALID,0.105969,VALID,22.8155,VALID,16,VALID,0.370313,
2008-07-22, 02:43:05,VALID,1009.36,VALID,0,VALID,95.7566,VALID,0.105969,VALID,22.8155,VALID,16,VALID,0.0652344,
2008-07-22, 02:44:05,VALID,1009.35,VALID,0,VALID,95.7566,VALID,0.105969,VALID,22.8368,VALID,32,VALID,0.225781,
2008-07-22, 02:45:05,VALID,1009.4,VALID,0,VALID,95.7718,VALID,0,VALID,22.8155,VALID,55,VALID,0.316797,
2008-07-22, 02:46:05,VALID,1009.4,VALID,0,VALID,95.7718,VALID,0,VALID,22.8562,VALID,57,VALID,0.324219,
2008-07-22, 02:47:05,VALID,1009.39,VALID,0,VALID,95.7642,VALID,0,VALID,22.8155,VALID,71,VALID,0.173438,
2008-07-22, 02:48:05,VALID,1009.38,VALID,0,VALID,95.7718,VALID,0.105969,VALID,22.8562,VALID,71,VALID,0.177734,
2008-07-22, 02:49:05,VALID,1009.36,VALID,0,VALID,95.7718,VALID,0.105969,VALID,22.8368,VALID,71,VALID,0.0980469,
2008-07-22, 02:50:05,VALID,1009.39,VALID,0,VALID,95.7566,VALID,0.105969,VALID,22.835,VALID,71,VALID,0.375,
2008-07-22, 02:51:05,VALID,1009.36,VALID,0,VALID,95.749,VALID,0.105969,VALID,22.8562,VALID,71,VALID,0.369922,
2008-07-22, 02:52:05,VALID,1009.34,VALID,0,VALID,95.749,VALID,0.105969,VALID,22.8545,VALID,72,VALID,0.465625,
2008-07-22, 02:53:05,VALID,1009.34,VALID,0,VALID,95.7413,VALID,0.105969,VALID,22.835,VALID,72,VALID,0.28125,
2008-07-22, 02:54:05,VALID,1009.31,VALID,0,VALID,95.7413,VALID,0,VALID,22.835,VALID,71,VALID,0.35,
2008-07-22, 02:55:05,VALID,1009.32,VALID,0,VALID,95.7337,VALID,0.105969,VALID,22.8562,VALID,66,VALID,0.317969,
2008-07-22, 02:56:05,VALID,1009.36,VALID,0,VALID,95.7413,VALID,0.105969,VALID,22.8757,VALID,64,VALID,0.309375,
2008-07-22, 02:57:05,VALID,1009.38,VALID,0,VALID,95.7261,VALID,0.105969,VALID,22.8545,VALID,64,VALID,0.234766,
2008-07-22, 02:58:05,VALID,1009.38,VALID,0,VALID,95.6956,VALID,0.105969,VALID,22.835,VALID,64,VALID,0.0859375,
2008-07-22, 02:59:05,VALID,1009.4,VALID,0,VALID,95.7108,VALID,0,VALID,22.8368,VALID,64,VALID,0,
2008-07-22, 03:00:05,VALID,1009.44,VALID,0,VALID,95.688,VALID,0.105969,VALID,22.835,VALID,64,VALID,0.146875,
2008-07-22, 03:01:05,VALID,1009.41,VALID,0,VALID,95.6803,VALID,0,VALID,22.8368,VALID,64,VALID,0.00117188,
2008-07-22, 03:02:05,VALID,1009.44,VALID,0,VALID,95.688,VALID,0.105969,VALID,22.8368,VALID,64,VALID,0.335156,
2008-07-22, 03:03:05,VALID,1009.43,VALID,0,VALID,95.6727,VALID,0.105969,VALID,22.8155,VALID,64,VALID,0.422266,
2008-07-22, 03:04:05,VALID,1009.43,VALID,0,VALID,95.6422,VALID,0.105969,VALID,22.7961,VALID,64,VALID,0.5,
2008-07-22, 03:05:05,VALID,1009.47,VALID,0,VALID,95.6651,VALID,0,VALID,22.7961,VALID,61,VALID,0.483984,
2008-07-22, 03:06:05,VALID,1009.48,VALID,0,VALID,95.6422,VALID,0.105969,VALID,22.7766,VALID,60,VALID,0.322656,
2008-07-22, 03:07:05,VALID,1009.45,VALID,0,VALID,95.6727,VALID,0,VALID,22.7766,VALID,60,VALID,0.270312,
2008-07-22, 03:08:05,VALID,1009.45,VALID,0,VALID,95.6651,VALID,0.105969,VALID,22.7571,VALID,60,VALID,0.283594,
2008-07-22, 03:09:05,VALID,1009.45,VALID,0,VALID,95.6727,VALID,0.105969,VALID,22.7783,VALID,59,VALID,0.369141,
2008-07-22, 03:10:05,VALID,1009.45,VALID,0,VALID,95.6803,VALID,0.105969,VALID,22.7783,VALID,59,VALID,0.364062,
2008-07-22, 03:11:05,VALID,1009.44,VALID,0,VALID,95.6803,VALID,0,VALID,22.7376,VALID,64,VALID,0.491016,
2008-07-22, 03:12:05,VALID,1009.43,VALID,0,VALID,95.6956,VALID,0,VALID,22.7783,VALID,67,VALID,0.362891,
2008-07-22, 03:13:05,VALID,1009.46,VALID,0,VALID,95.7032,VALID,0.105969,VALID,22.7376,VALID,67,VALID,0.190625,
2008-07-22, 03:14:05,VALID,1009.44,VALID,0,VALID,95.7185,VALID,0,VALID,22.7571,VALID,67,VALID,0.138672,
2008-07-22, 03:15:05,VALID,1009.47,VALID,0,VALID,95.7185,VALID,0,VALID,22.7394,VALID,59,VALID,0.647656,
2008-07-22, 03:16:05,VALID,1009.46,VALID,0,VALID,95.7185,VALID,0.105969,VALID,22.7376,VALID,337,VALID,0.318359,
2008-07-22, 03:17:05,VALID,1009.46,VALID,0,VALID,95.7108,VALID,0.105969,VALID,22.7182,VALID,61,VALID,0.330859,
2008-07-22, 03:18:05,VALID,1009.44,VALID,0,VALID,95.7337,VALID,0,VALID,22.7394,VALID,56,VALID,0.324609,
2008-07-22, 03:19:05,VALID,1009.44,VALID,0,VALID,95.7413,VALID,0,VALID,22.7182,VALID,61,VALID,0.192188,
2008-07-22, 03:20:04,VALID,1009.44,VALID,0,VALID,95.7185,VALID,0.105969,VALID,22.7394,VALID,56,VALID,0.305078,
2008-07-22, 03:21:04,VALID,1009.45,VALID,0,VALID,95.7185,VALID,0.105969,VALID,22.7182,VALID,54,VALID,0.169531,
2008-07-22, 03:22:04,VALID,1009.45,VALID,0,VALID,95.7337,VALID,0,VALID,22.7588,VALID,54,VALID,0,
2008-07-22, 03:23:04,VALID,1009.42,VALID,0,VALID,95.7337,VALID,0.105969,VALID,22.7588,VALID,68,VALID,0.280078,
2008-07-22, 03:24:04,VALID,1009.47,VALID,0,VALID,95.7642,VALID,0.105969,VALID,22.7571,VALID,77,VALID,0.321875,
2008-07-22, 03:25:04,VALID,1009.43,VALID,0,VALID,95.749,VALID,0,VALID,22.7588,VALID,77,VALID,0.441797,
2008-07-22, 03:26:04,VALID,1009.43,VALID,0,VALID,95.749,VALID,0.105969,VALID,22.7588,VALID,82,VALID,0.696875,
2008-07-22, 03:27:04,VALID,1009.41,VALID,0,VALID,95.7566,VALID,0.105969,VALID,22.7571,VALID,82,VALID,0.703125,
2008-07-22, 03:28:04,VALID,1009.44,VALID,0,VALID,95.7718,VALID,0.105969,VALID,22.7766,VALID,83,VALID,0.526563,
2008-07-22, 03:29:04,VALID,1009.45,VALID,0,VALID,95.7642,VALID,0.105969,VALID,22.7978,VALID,102,VALID,1.19922,
2008-07-22, 03:30:04,VALID,1009.46,VALID,0,VALID,95.7261,VALID,0,VALID,22.78,VALID,110,VALID,1.32617,
2008-07-22, 03:31:04,VALID,1009.45,VALID,0,VALID,95.7108,VALID,0,VALID,22.7783,VALID,101,VALID,0.825391,
2008-07-22, 03:32:04,VALID,1009.48,VALID,0,VALID,95.7108,VALID,0,VALID,22.7978,VALID,97,VALID,0.719531,
2008-07-22, 03:33:04,VALID,1009.47,VALID,0,VALID,95.6956,VALID,0,VALID,22.7978,VALID,89,VALID,0.367188,
2008-07-22, 03:34:04,VALID,1009.48,VALID,0,VALID,95.6651,VALID,0,VALID,22.7783,VALID,71,VALID,0.794141,
2008-07-22, 03:35:04,VALID,1009.45,VALID,0,VALID,95.6193,VALID,0,VALID,22.7588,VALID,62,VALID,0.464063,
2008-07-22, 03:36:04,VALID,1009.47,VALID,0,VALID,95.5812,VALID,0,VALID,22.7588,VALID,76,VALID,0.640234,
2008-07-22, 03:37:04,VALID,1009.49,VALID,0,VALID,95.6041,VALID,0,VALID,22.7783,VALID,87,VALID,0.644141,
2008-07-22, 03:38:04,VALID,1009.53,VALID,0,VALID,95.5888,VALID,0,VALID,22.7783,VALID,91,VALID,0.752344,
2008-07-22, 03:39:04,VALID,1009.53,VALID,0,VALID,95.5583,VALID,0,VALID,22.7588,VALID,80,VALID,0.573828,